sat.trackr.live / text

‹ back to catalog

STARLINK-30838

NORAD 58211 · 2023-170F

PAYLOAD ACTIVE UNKNOWN

§ Identity

Operator
Country
US
Launch date
2023-11-03
Launch site
AFETR
Launch vehicle
Mass (kg)
RCS (m²)

Purposes: comms

External: N2YO · Heavens-Above · Gunter

§ Orbital elements

Epoch: 2026-05-25T04:55:46.648128Z

Period
94.27 min
Inclination
43.0031°
Eccentricity
0.0001678
Mean motion
15.27580439 rev/d
Perigee alt
481.9 km
Apogee alt
484.2 km
Semi-major
6,861.2 km
B*
1.7392e-5
RAAN
121.9256°
Arg perigee
266.6762°
Mean anomaly
93.3897°
Rev number
14,200

§ Raw data

STARLINK-308381 58211U 23170F   26145.20540102  .00000216  00000+0  17392-4 0  99962 58211  43.0031 121.9256 0001678 266.6762  93.3897 15.27580439142003

JSON: /api/v1/satellites/58211 · /tle

For live sub-satellite position, see the globe view (requires WebGL).

§ Visibility from observer

Set your observer location to see the next 7 days of passes ≥ 10°. The values pass through the URL so the page stays shareable.

No JS? Fill the form by hand. The geolocation button needs JavaScript.